星链-3801 (STARLINK-3801 )

导读 | 星芒AI

STARLINK-3801 是 SpaceX Starlink 卫星互联网项目中的一颗低轨通信卫星。它属于 Starlink 任务中的第 11 批部署卫星,于 2021 年 11 月发射。该卫星旨在为全球用户提供高速、低延迟的互联网服务,尤其服务于传统网络难以覆盖的偏远地区。STARLINK-3801 采用先进推进系统和激光通信技术,有助于提升 Starlink 网络的稳定性和效率。作为 SpaceX 扩大全球宽带覆盖计划的一部分,该卫星在推动全球互联网普及方面发挥着重要作用。

基本信息
目录编号:
52356
目录名称:
STARLINK-3801
国际标识:
2022-045AB
轨道中心:
EARTH
卫星名称:
星链-3801
卫星全名:
星链-3801 (STARLINK-3801 )
卫星状态:
在轨 (已飞行1332 天)
发射日期:
2022-04-29 UTC
国别 :
美国 (US)
星等 :
--
轨道信息
数据来源 国际轨道数据 AOE轨道数据
星历时间 2025-12-21T04:27:10+0800
7小时前
查看轨道信息
2025-12-19T06:00:00+0800
2天前
查看轨道信息
半长轴 6917.892km 6917.869km
偏心率 0.000142 0.0001556
轨道倾角 53.215° 53.216°
近地点辐角 92.055° 78.846°
升交点赤经 193.063° 201.754°
平近点角 268.061° 202.052°
近地点 538.772km 538.657km
远地点 540.738km 540.811km
周期 95.438分钟 95.437分钟
每日圈数 15.088363 15.088438
详细信息
固有亮度:
5
最大亮度:
2.5
卫星平台:
Starlink v1.5
覆盖范围:
全球
运营商:
太空探索技术公司
运营商所在国:
美国
制造商(研发单位):
太空探索技术公司
制造商所在国:
美国
使用方式:
暂无
卫星简介
星链(Starlink)计划是由太空探索技术公司(SpaceX)提出的一个巨型低轨卫星互联网星座项目,计划在2019年至2024年间在太空搭建由约1.2万颗卫星组成的“星链”网络,其中1584颗将部署在地球上空550千米处的近地轨道,并从2020年开始工作。该卫星仍在工作。
2D轨道图
3D轨道图
轨道高度分析图
轨道倾角分析图
轨道综合分析图
查看轨道综合分析图